User: anonymous   Login
Location: Bondula
(6.3703°N, 10.6756°W)
Time: 05:15:32
(UTC+00:00)
Language:

Cosmos 1602 Rocket - Orbit

View from above orbital plane
View from above orbital plane
View from above satellite
View from above satellite

Ground track
Ground track

The orbit data is extracted from the following two-line orbital elements,

1 15332U 84105B   19344.63617507  .00000067  00000-0  53072-5 0  9993
2 15332  82.5363  60.7257 0019627 260.2941 212.7023 14.83403793900962
Epoch (UTC): 10 December 2019 15:16:05
Eccentricity: 0.0019627
inclination: 82.5363°
perigee height: 605 km
apogee height: 632 km
right ascension of ascending node: 60.7257°
argument of perigee: 260.2941°
revolutions per day: 14.83403793
mean anomaly at epoch: 212.7023°
orbit number at epoch: 90096

The dashed part of the orbit path shows where the satellite is in the earth's shadow,  

DLR